sat.trackr.live / text

‹ back to catalog

STARLINK-35030

NORAD 65448 · 2025-194Q

PAYLOAD ACTIVE UNKNOWN

§ Identity

Operator
Country
US
Launch date
2025-09-03
Launch site
AFWTR
Launch vehicle
Mass (kg)
RCS (m²)

Purposes: comms

External: N2YO · Heavens-Above · Gunter

§ Orbital elements

Epoch: 2026-09-20T13:38:58.633152Z

Period
93.91 min
Inclination
97.2844°
Eccentricity
0.0001881
Mean motion
15.33451624 rev/d
Perigee alt
464.2 km
Apogee alt
466.8 km
Semi-major
6,843.7 km
B*
3.6701e-4
RAAN
113.1400°
Arg perigee
55.1990°
Mean anomaly
304.9429°
Rev number
5,907

§ Raw data

STARLINK-350301 65448U 25194Q   26263.56873418  .00011795  00000+0  36701-3 0  99912 65448  97.2844 113.1400 0001881  55.1990 304.9429 15.33451624 59076

JSON: /api/v1/satellites/65448 · /tle

For live sub-satellite position, see the globe view (requires WebGL).

§ Visibility from observer

Set your observer location to see the next 7 days of passes ≥ 10°. The values pass through the URL so the page stays shareable.

No JS? Fill the form by hand. The geolocation button needs JavaScript.